Location: *
(60.1759°S, 155.0663°W)
Time: 00:26:57
(UTC+00:00)

Cosmos 2112 Rocket - Pass Details

Date: 17 September 2019
Orbit: 757 x 786 km, 74.1° (Epoch: 14 October)

Event Time Altitude Azimuth Distance (km) Brightness Sun altitude
Rises 12:50:02 0° 214° (SW) 3,317 7.4 -24.9°
Reaches altitude 10° 12:52:27 10° 212° (SSW) 2,386 6.7 -24.7°
Maximum altitude 12:57:54 78° 125° (SE) 825 4.1 -24.2°
Drops below altitude 10° 13:03:20 10° 37° (NE) 2,370 6.5 -23.7°
Sets 13:05:43 0° 36° (NE) 3,292 7.2 -23.5°
